THOR ALTAIR DEB, 1931

Orbit data source: Space-Track

THOR ALTAIR DEB, 1931 is space debris in SSO originally from a launch on Fri, 10 Sep 1965 UTC launched from the Air Force Western Test Range (AFWTR). Debris objects in space refer to the collection of defunct objects orbiting the Earth. Examples of debris include non-operational satellites, rocket bodies, and fragments generated from explosions, collisions, or faulty payload assembly.

Loading next visibility...
Identifier
1931, 1965-072E
Orbit
SSO
Country
Flag of USUS
Related business
Manufacturer
Unknown
Mission
Spacecraft
Bus & Motor
Unknown
Mass
Unknown
Launch date (UTC)
1965-09-10 (60 years ago)
Launch vehicle
Unknown
Launch site
Air Force Western Test Range (AFWTR)
Object type
Payload
Rocket body
Debris
Shape & HBR
Unknown
Radar Cross Section
Small (<0.1 m²)

Expand to show TLE details & history
Last TLE update: 13 hours ago

TLE from 13 hours ago
0 THOR ALTAIR DEB
1 01931U 65072E   25242.99511691  .00001043  00000-0  28487-3 0  9990
2 01931  99.0372 261.4254 0237611 206.2839 152.6128 14.34395310151230
Epoch: 2025-08-30T23:52Z
TLE epoch observation values (Epoch: 2025-08-30T23:52:58.101Z)
Latitude
-0.00003°
Longitude
-76.2381°
Altitude
931.82 km
Speed
7.307 km/s
True Right ascension
17h 25m 42s
True Declination
0° 00' 00"
Sunlit
Object was in daylight at epoch
Visualization orbit readout
Latitude
Unknown
Longitude
Unknown
Altitude
Unknown
Speed
Unknown
Apparent Right ascension
Unknown
Apparent Declination
Unknown
Sunlit
N/A
Visualization observer readout
Local Sidereal Time
05:01:58
Azimuth
Unknown
Elevation
Unknown
Doppler factor
Unknown
Orbital elements
Apogee altitude
944.178 km
Perigee altitude
604.282 km
Semi-major axis
7,152.367 km
Eccentricity
0.02376
Inclination
99.0372°
RAAN
261.4254°
Arg. of periapsis
206.2839°
True anomaly
153.833°
Mean anomaly
152.6128°
Eccentric anomaly
153.22608°
Mean motion
3.58813 °/min
Orbital period
100.33 mins
BSTAR
0.00028487
Loading maneuver chart data...
Computing Atmospheric mass density...
Loading historical data...
Loading historical data...
Loading historical data...
Loading historical data...
Loading historical data...
Loading historical data...
Loading historical data...

Documentation

Showing up to 5 results
|